Regional Weather Roundup
Issued by NWS Little Rock, AR

Home | Current Version | Previous Version | Text Only | Print | Product List | Glossary On
Versions: 1 2 3 4 5 6 7 8 9 10 11 12 13 14 15 16 17 18 19 20 21 22 23 24 25 26 27 28 29 30 31 32 33 34 35 36 37 38 39 40 41 42 43 44 45 46 47 48 49 50
245
ASUS44 KLZK 281205
RWRLZK

WEATHER ROUNDUP FOR ARKANSAS
NATIONAL WEATHER SERVICE LITTLE ROCK AR
700 AM CDT SAT MAY 28 2016

NOTE: "FAIR" INDICATES FEW OR NO CLOUDS BELOW 12,000 FEET WITH NO
SIGNIFICANT WEATHER AND/OR OBSTRUCTIONS TO VISIBILITY.

ARZ001-003-010-029-281300-
NORTHWEST ARKANSAS

CITY           SKY/WX    TMP DP  RH WIND       PRES   REMARKS
FAYETTEVILLE   CLEAR     63  61  93 SW8       29.89R
6HR MIN TEMP:  57; 6HR MAX TEMP:  65;

FORT SMITH     CLEAR     63  60  90 CALM      29.89R
6HR MIN TEMP:  62; 6HR MAX TEMP:  66;

HARRISON       CLOUDY    62  60  93 SE7       29.90R
6HR MIN TEMP:  60; 6HR MAX TEMP:  65;

BENTONVILLE    CLEAR     61  57  88 SW6       29.89R
6HR MIN TEMP:  59; 6HR MAX TEMP:  64;

ROGERS           N/A     60  59  96 S6        29.90R
6HR MIN TEMP:  59; 6HR MAX TEMP:  65;

SILOAM SPGS    PTCLDY    61  52  72 SW6       29.91R
6HR MIN TEMP:  57; 6HR MAX TEMP:  64;

HIGHFILL       CLEAR     61  61 100 SW7       29.89R
6HR MIN TEMP:  59; 6HR MAX TEMP:  65;

SPRINGDALE     CLEAR     59  59 100 CALM      29.91R
$$

ARZ004-005-016-281300-
NORTH CENTRAL ARKANSAS

CITY           SKY/WX    TMP DP  RH WIND       PRES   REMARKS
BATESVILLE     MOSUNNY   66  63  88 SE8       29.94R
6HR MIN TEMP:  66; 6HR MAX TEMP:  70;

FLIPPIN        MOSUNNY  N/A N/A N/A SE3       29.87R
MTN HOME       CLOUDY    64  62  93 SE5       29.89R
6HR MIN TEMP:  61; 6HR MAX TEMP:  68;

$$

ARZ040-041-281300-
WEST CENTRAL ARKANSAS

CITY           SKY/WX    TMP DP  RH WIND       PRES   REMARKS
MENA           CLOUDY    68  64  88 SW3       29.93R
MOUNT IDA      CLOUDY    64  61  90 W3        29.89R
6HR MIN TEMP:  62; 6HR MAX TEMP:  65;

$$

ARZ009-017-025-026-028-281300-
NORTHEAST ARKANSAS

CITY           SKY/WX    TMP DP  RH WIND       PRES   REMARKS
CORNING          N/A     68  68 100 SE10      29.94R
JONESBORO      CLOUDY    69  66  90 S7        29.94R
6HR MIN TEMP:  67; 6HR MAX TEMP:  69;

NEWPORT        CLOUDY    68  68 100 S5        29.95R
6HR MIN TEMP:  67; 6HR MAX TEMP:  69;

WALNUT RIDGE   CLOUDY    68  63  83 S9        29.94R
6HR MIN TEMP:  68; 6HR MAX TEMP:  70;

BLYTHEVILLE    PTSUNNY   70  67  90 SE6       29.96S
6HR MIN TEMP:  69; 6HR MAX TEMP:  70; 6HR PCP:  0.04;

$$

ARZ022-023-033-042-044-281300-
CENTRAL ARKANSAS

CITY           SKY/WX    TMP DP  RH WIND       PRES   REMARKS
LITTLE ROCK    PTSUNNY   66  62  87 S6        29.92S
6HR MIN TEMP:  65; 6HR MAX TEMP:  69;

N LITTLE ROCK    N/A     65  62  92 S5        29.90S
6HR MIN TEMP:  64; 6HR MAX TEMP:  69;

JACKSONVILLE   PTSUNNY   66  65  99 VRB2      29.91R
6HR MIN TEMP:  64; 6HR MAX TEMP:  69;

SEARCY         PTSUNNY   67  66  97 S3        29.95R
6HR MIN TEMP:  64; 6HR MAX TEMP:  69;

HOT SPRINGS    CLOUDY    65  63  93 CALM      29.92R
6HR MIN TEMP:  63; 6HR MAX TEMP:  67;

RUSSELLVILLE   CLOUDY    66  63  90 CALM      29.91R
6HR MIN TEMP:  63; 6HR MAX TEMP:  69;

CLINTON        FAIR      63  63 100 CALM      29.93R
$$

ARZ036-281300-
EAST ARKANSAS

CITY           SKY/WX    TMP DP  RH WIND       PRES   REMARKS
WEST MEMPHIS   CLOUDY    69  67  93 S7        29.95R
6HR MIN TEMP:  66; 6HR MAX TEMP:  69; 6HR PCP:  0.02;

$$

ARZ050-053-066-070-073-281300-
SOUTHWEST ARKANSAS

CITY           SKY/WX    TMP DP  RH WIND       PRES   REMARKS
ARKADELPHIA    FAIR      64  64 100 CALM      29.91S
6HR MIN TEMP:  61; 6HR MAX TEMP:  65;

CAMDEN         MOSUNNY   63  59  88 CALM      29.91F
TEXARKANA      CLOUDY    63  62  97 CALM      29.90R
6HR MIN TEMP:  63; 6HR MAX TEMP:  65;

EL DORADO      PTCLDY    62  61  96 CALM      29.92R
6HR MIN TEMP:  60; 6HR MAX TEMP:  64;

DE QUEEN       CLOUDY    64  64 100 CALM      29.90R
6HR MIN TEMP:  61; 6HR MAX TEMP:  66;

$$

ARZ056-057-069-281300-
SOUTHEAST ARKANSAS

CITY           SKY/WX    TMP DP  RH WIND       PRES   REMARKS
PINE BLUFF     PTSUNNY   66  64  93 SE3       29.93R
6HR MIN TEMP:  64; 6HR MAX TEMP:  69; 6HR PCP: TRACE;

STUTTGART      MOSUNNY   68  63  83 SE8       29.94S
6HR MIN TEMP:  66; 6HR MAX TEMP:  72;

MONTICELLO     CLOUDY    66  64  93 E3        29.94R
6HR MIN TEMP:  66; 6HR MAX TEMP:  69;


$$






USA.gov is the U.S. government's official web portal to all federal, state and local government web resources and services.